TimeEDT,TemperatureF,Dew PointF,Humidity,Sea Level PressureIn,VisibilityMPH,Wind Direction,Wind SpeedMPH,Gust SpeedMPH,PrecipitationIn,Events,Conditions,WindDirDegrees,DateUTC
12:35 AM,68.0,59.0,73,29.99,10.0,WSW,4.6,-,N/A,,Clear,240,2013-05-17 04:35:00
12:55 AM,67.3,59.4,76,30.00,10.0,SW,3.5,-,N/A,,Clear,220,2013-05-17 04:55:00
1:15 AM,68.5,58.3,70,30.00,10.0,Calm,Calm,-,N/A,,Clear,0,2013-05-17 05:15:00
1:35 AM,69.1,57.6,67,29.99,10.0,West,3.5,-,N/A,,Clear,270,2013-05-17 05:35:00
1:55 AM,67.1,58.1,73,29.99,10.0,Calm,Calm,-,N/A,,Clear,0,2013-05-17 05:55:00
2:15 AM,65.7,58.1,77,29.99,10.0,Calm,Calm,-,N/A,,Clear,0,2013-05-17 06:15:00
2:35 AM,64.2,58.5,82,29.99,10.0,Calm,Calm,-,N/A,,Clear,0,2013-05-17 06:35:00
2:55 AM,61.9,57.7,86,29.99,10.0,Calm,Calm,-,N/A,,Clear,0,2013-05-17 06:55:00
3:15 AM,61.3,58.6,91,30.00,10.0,Calm,Calm,-,N/A,,Clear,0,2013-05-17 07:15:00
3:35 AM,61.7,58.5,89,30.00,10.0,Calm,Calm,-,N/A,,Clear,0,2013-05-17 07:35:00
3:55 AM,61.9,59.2,91,30.00,10.0,Calm,Calm,-,N/A,,Clear,0,2013-05-17 07:55:00
4:15 AM,61.3,58.5,90,30.01,10.0,Calm,Calm,-,N/A,,Clear,0,2013-05-17 08:15:00
4:35 AM,62.6,59.2,89,30.02,10.0,Calm,Calm,-,N/A,,Clear,0,2013-05-17 08:35:00
4:55 AM,63.7,58.8,84,30.02,10.0,Calm,Calm,-,N/A,,Clear,0,2013-05-17 08:55:00
5:15 AM,63.0,59.5,89,30.03,10.0,Calm,Calm,-,N/A,,Clear,0,2013-05-17 09:15:00
5:35 AM,62.2,59.0,89,30.04,10.0,Calm,Calm,-,N/A,,Clear,0,2013-05-17 09:35:00
5:55 AM,63.0,59.2,87,30.04,10.0,Calm,Calm,-,N/A,,Clear,0,2013-05-17 09:55:00
6:15 AM,62.6,59.4,89,30.04,10.0,SW,3.5,-,N/A,,Clear,220,2013-05-17 10:15:00
6:35 AM,62.6,59.0,88,30.05,10.0,Calm,Calm,-,N/A,,Clear,0,2013-05-17 10:35:00
6:55 AM,62.2,59.5,91,30.06,10.0,Calm,Calm,-,N/A,,Clear,0,2013-05-17 10:55:00
7:15 AM,63.1,59.9,89,30.07,10.0,Calm,Calm,-,N/A,,Clear,0,2013-05-17 11:15:00
7:35 AM,63.9,60.4,89,30.07,10.0,Calm,Calm,-,N/A,,Clear,0,2013-05-17 11:35:00
7:55 AM,65.3,59.9,83,30.07,10.0,West,3.5,-,N/A,,Clear,260,2013-05-17 11:55:00
8:15 AM,66.4,59.9,80,30.08,10.0,Calm,Calm,-,N/A,,Clear,0,2013-05-17 12:15:00
8:35 AM,68.4,59.5,73,30.08,10.0,Calm,Calm,-,N/A,,Clear,0,2013-05-17 12:35:00
8:55 AM,70.7,59.2,67,30.09,10.0,Calm,Calm,-,N/A,,Clear,0,2013-05-17 12:55:00
9:15 AM,73.8,57.6,57,30.09,10.0,NNW,3.5,-,N/A,,Clear,340,2013-05-17 13:15:00
9:35 AM,74.7,57.9,56,30.09,10.0,North,5.8,-,N/A,,Clear,10,2013-05-17 13:35:00
9:55 AM,75.9,58.3,54,30.09,10.0,NNE,3.5,-,N/A,,Clear,20,2013-05-17 13:55:00
10:15 AM,76.6,58.3,53,30.10,10.0,North,3.5,-,N/A,,Clear,10,2013-05-17 14:15:00
10:35 AM,77.5,57.9,51,30.10,10.0,NNE,4.6,-,N/A,,Clear,30,2013-05-17 14:35:00
10:55 AM,77.5,57.0,49,30.10,10.0,NE,6.9,-,N/A,,Clear,40,2013-05-17 14:55:00
11:15 AM,78.3,57.4,49,30.10,10.0,East,5.8,-,N/A,,Clear,90,2013-05-17 15:15:00
11:35 AM,78.4,57.4,48,30.10,10.0,Calm,Calm,-,N/A,,Clear,0,2013-05-17 15:35:00
11:55 AM,78.6,56.1,46,30.10,10.0,Calm,Calm,-,N/A,,Clear,0,2013-05-17 15:55:00
12:15 PM,79.7,57.0,46,30.09,10.0,NE,5.8,-,N/A,,Clear,50,2013-05-17 16:15:00
12:35 PM,80.2,55.6,43,30.09,10.0,SE,4.6,-,N/A,,Clear,130,2013-05-17 16:35:00
12:55 PM,80.4,54.9,41,30.09,10.0,Calm,Calm,-,N/A,,Clear,0,2013-05-17 16:55:00
1:15 PM,81.0,54.3,40,30.09,10.0,Calm,Calm,-,N/A,,Clear,0,2013-05-17 17:15:00
1:35 PM,81.3,55.6,41,30.09,10.0,SSW,3.5,-,N/A,,Clear,200,2013-05-17 17:35:00
1:55 PM,81.5,54.5,39,30.08,10.0,West,3.5,-,N/A,,Clear,260,2013-05-17 17:55:00
2:15 PM,82.4,55.9,40,30.08,10.0,Calm,Calm,-,N/A,,Clear,0,2013-05-17 18:15:00
2:35 PM,83.1,56.7,40,30.07,10.0,SE,4.6,-,N/A,,Clear,130,2013-05-17 18:35:00
2:55 PM,82.9,57.2,41,30.07,10.0,Calm,Calm,-,N/A,,Clear,0,2013-05-17 18:55:00
3:15 PM,82.9,57.0,41,30.07,10.0,South,5.8,-,N/A,,Scattered Clouds,190,2013-05-17 19:15:00
3:35 PM,83.5,57.4,41,30.07,10.0,Calm,Calm,-,N/A,,Mostly Cloudy,0,2013-05-17 19:35:00
3:55 PM,82.0,55.6,40,30.06,10.0,Calm,Calm,-,N/A,,Scattered Clouds,0,2013-05-17 19:55:00
4:15 PM,81.7,56.3,42,30.06,10.0,SSW,3.5,-,N/A,,Scattered Clouds,210,2013-05-17 20:15:00
4:35 PM,82.4,55.8,40,30.05,10.0,South,3.5,-,N/A,,Mostly Cloudy,180,2013-05-17 20:35:00
4:55 PM,83.7,55.4,38,30.05,10.0,SSW,3.5,-,N/A,,Scattered Clouds,200,2013-05-17 20:55:00
5:15 PM,83.5,55.9,39,30.05,10.0,South,3.5,-,N/A,,Clear,190,2013-05-17 21:15:00
5:35 PM,82.6,55.2,39,30.05,10.0,SSW,3.5,-,N/A,,Scattered Clouds,210,2013-05-17 21:35:00
5:55 PM,83.7,54.5,37,30.05,10.0,South,3.5,-,N/A,,Clear,170,2013-05-17 21:55:00
6:15 PM,83.3,55.8,39,30.05,10.0,SSE,3.5,-,N/A,,Clear,150,2013-05-17 22:15:00
6:35 PM,81.5,55.8,41,30.05,10.0,South,3.5,-,N/A,,Clear,180,2013-05-17 22:35:00
6:55 PM,81.1,55.4,41,30.05,10.0,Calm,Calm,-,N/A,,Clear,0,2013-05-17 22:55:00
7:15 PM,80.1,56.5,44,30.05,10.0,Calm,Calm,-,N/A,,Clear,0,2013-05-17 23:15:00
7:35 PM,78.3,58.1,50,30.05,10.0,Calm,Calm,-,N/A,,Clear,0,2013-05-17 23:35:00
7:55 PM,75.2,59.7,58,30.06,10.0,Calm,Calm,-,N/A,,Clear,0,2013-05-17 23:55:00
8:35 PM,73.8,60.6,63,30.06,4.0,Calm,Calm,-,N/A,,Haze,0,2013-05-18 00:35:00
8:55 PM,71.6,62.4,73,30.07,7.0,Calm,Calm,-,N/A,,Clear,0,2013-05-18 00:55:00
9:15 PM,71.8,61.9,71,30.07,10.0,Calm,Calm,-,N/A,,Clear,0,2013-05-18 01:15:00
9:35 PM,71.6,62.2,72,30.08,10.0,Calm,Calm,-,N/A,,Clear,0,2013-05-18 01:35:00
9:55 PM,72.9,61.0,66,30.08,10.0,Calm,Calm,-,N/A,,Mostly Cloudy,0,2013-05-18 01:55:00
10:15 PM,75.4,57.7,54,30.09,10.0,ESE,8.1,-,N/A,,Overcast,110,2013-05-18 02:15:00
10:35 PM,74.8,57.2,54,30.09,10.0,ESE,10.4,-,N/A,,Overcast,110,2013-05-18 02:35:00
10:55 PM,74.1,56.8,55,30.09,10.0,ESE,8.1,-,N/A,,Mostly Cloudy,120,2013-05-18 02:55:00
11:15 PM,73.4,55.6,54,30.09,10.0,ESE,9.2,-,N/A,,Clear,120,2013-05-18 03:15:00
11:35 PM,72.0,55.0,55,30.09,10.0,ESE,8.1,-,N/A,,Scattered Clouds,110,2013-05-18 03:35:00
11:55 PM,71.6,54.1,54,30.10,10.0,SE,6.9,-,N/A,,Scattered Clouds,130,2013-05-18 03:55:00